Regional Weather Roundup
Issued by NWS

Home | Current Version | Previous Version | Text Only | Print | Product List | Glossary Off
Versions: 1 2 3 4 5 6 7 8 9 10 11 12 13 14 15 16 17 18 19 20 21 22 23 24 25 26 27

000
ASUS45 KBOI 270710
RWRID

IDAHO REGIONAL WEATHER ROUNDUP
NATIONAL WEATHER SERVICE BOISE ID
100 AM MDT WED JUL 27 2016

NOTE: "FAIR" INDICATES FEW OR NO CLOUDS BELOW 12000 FEET
WITH NO SIGNIFICANT WEATHER AND/OR OBSTRUCTIONS TO VISIBILITY

IDZ012-014-270800-
SOUTHWEST IDAHO


CITY           SKY/WX    TMP DP  RH WIND       PRES   REMARKS
BOISE          CLEAR     77  47  34 CALM      29.96R
CALDWELL       CLEAR     76  53  44 W8        29.95R
MOUNTAIN HOME  CLEAR     81  38  21 N7        29.96S
$$

IDZ016-017-270800-
SOUTHCENTRAL IDAHO


CITY           SKY/WX    TMP DP  RH WIND       PRES   REMARKS
BURLEY         CLEAR     63  49  60 SE3       30.06S
JEROME         CLEAR     65  43  44 NE6       30.06R
TWIN FALLS     CLEAR     73  36  25 S10       30.06S
$$

IDZ019>023-270800-
SOUTHEAST IDAHO


CITY           SKY/WX    TMP DP  RH WIND       PRES   REMARKS
IDAHO FALLS    CLEAR     55  45  68 N6        30.13S
POCATELLO      CLEAR     59  44  57 N5        30.11R
REXBURG        CLEAR     64  44  48 E6        30.14S
$$

IDZ006-010-011-018-031-032-270800-
CENTRAL IDAHO MOUNTAINS


CITY           SKY/WX    TMP DP  RH WIND       PRES   REMARKS
MCCALL         CLEAR     67  48  50 N5        30.15S
HAILEY         CLEAR     66  37  34 N3        30.19R
STANLEY          N/A     51  36  56 S5        30.28R
SALMON         CLEAR     55  46  71 CALM      30.13S
CHALLIS        CLEAR     67  40  37 CALM      30.18R
$$

IDZ002-004-006-007-026-270800-
NORTHERN IDAHO


CITY           SKY/WX    TMP DP  RH WIND       PRES   REMARKS
LEWISTON       PTCLDY    82  49  31 S3        29.95R
LOWELL           N/A     66  58  75 NW3       30.00R
COEUR D`ALENE  CLOUDY    66  57  72 NE9       30.02S
MULLAN PASS    PTCLDY    64  42  44 N6        30.25S
$$




USA.gov is the U.S. government's official web portal to all federal, state and local government web resources and services.